Tracking 20475 objects as of 27-Feb-2020
HD Live streaming from Space Station
objects crossing your sky now

EKRAN 1

Track EKRAN 1 now!
EKRAN 1 is classified as:


NORAD ID: 9503
Int'l Code: 1976-107A
Perigee: 35,536.2 km
Apogee: 36,079.3 km
Inclination: 9.3 °
Period: 1,436.8 minutes
Semi major axis: 42178 km
RCS: 3.5481 m2 (large)
Launch date: October 26, 1976
Source: Commonwealth of Independent States (former USSR) (CIS)
Launch site: TYURATAM MISSILE AND SPACE COMPLEX (TTMTR)
aabbcc
Your satellite tracking list
Your tracking list is empty




NASA's NSSDC Master Catalog

Two Line Element Set (TLE):
1  9503U 76107A   20057.15537845 -.00000038 +00000-0 +00000-0 0  9992
2  9503 009.2667 302.0468 0064375 115.2433 224.0045 01.00221838175416
Source of the keplerian elements: AFSPC